User: anonymous   Login
Location: ActonStarParty
(42.4766°N, 71.4538°W)
Time: 16:09:31
(UTC-04:00)
Language:

ITAMSAT 1 - Orbit

View from above orbital plane
View from above orbital plane
View from above satellite
View from above satellite

Ground track
Ground track

The orbit data is extracted from the following two-line orbital elements,

1 22826U 93061D   16206.90561535 +.00000016 +00000-0 +23614-4 0  9995
2 22826 098.7564 163.5114 0008563 191.6303 168.4683 14.30287344190548
Epoch (UTC): 24 July 2016 21:44:05
Eccentricity: 0.0008563
inclination: 98.7564°
perigee height: 784 km
apogee height: 797 km
right ascension of ascending node: 163.5114°
argument of perigee: 191.6303°
revolutions per day: 14.30287344
mean anomaly at epoch: 168.4683°
orbit number at epoch: 19054

The dashed part of the orbit path shows where the satellite is in the earth's shadow,  

DLR